Weather in Villagarzon

Colombia     1°08′52″N   76°38′53″W
temp.,
°C
wind,
m/s
gust,
m/s
humid.,
%
clouds,
%
prec.,
mm/h
press.,
hPa
HPBL,
m
23 april, fri
fri2301:00+12wnw21978 0.1 101728
04:00+11wnw21958 0.0 101631
07:00+13wnw229292 0.0 101855
10:00+17se228357 1.0 1018767
13:00+17ese219094 3.6 1015640
16:00+17ese119246 2.1 1013439
19:00+14wnw119842 3.7 101621
22:00+13wnw219537 0.1 101823
24 april, sat
sat2401:00+12wnw21965 0.1 101727
04:00+11wnw21945 0.0 101729
07:00+13wnw228919 0.0 101855
10:00+20ese326364 0.1 10171138
13:00+19se228080 1.7 1014890
16:00+17se119272 2.8 1013450
19:00+14wnw119344 3.8 101514
22:00+13wnw229442 0.0 101730
25 april, sun
sun2501:00+12wnw2293100 0.0 101735
04:00+12wnw2291100 0.1 101634
07:00+14wnw2288100 0.2 101750
10:00+18se228155 0.6 1017748
13:00+18ese218844 3.4 1014746
16:00+17se119396 3.6 1012438
19:00+14wnw119893 4.9 101524
22:00+13wnw219677 0.3 101827
26 april, mon
mon2601:00+13wnw229596 0.3 101631
04:00+13wnw219272 0.0 101530
07:00+14wnw228755 0.0 101654
10:00+19ese227698 0.7 1016902
13:00+18se229139 3.9 1013591
16:00+17sse1296100 2.9 1012296
19:00+14wnw1199100 5.8 101524
22:00+14wnw2297100 0.8 101737
27 april, tue
tue2701:00+13w2195100 0.8 101535
04:00+13wnw1195100 0.6 101516
07:00+14wnw1196100 2.4 101538
10:00+14se12100100 1.1 1017214
13:00+14sse12100100 5.5 1016149
16:00+14se12100100 4.5 1014164
19:00+13sse01100100 5.3 101698
22:00+13s01100100 1.0 101872